Location: Brompton
(51.4000°N, 0.5333°E)
Time: 05:23:34
(UTC+00:00)

USA 215 - Pass Details

Date: 29 September 2021
Orbit: 1093 x 1114 km, 123.0° (Epoch: 14 October)

Event Time Altitude Azimuth Distance (km) Brightness Sun altitude
Exits shadow 21:33:19 27° 235° (SW) 1,950 4.5 -33.8°
Drops below altitude 10° 21:38:32 10° 288° (WNW) 2,963 6.1 -34.3°
Sets 21:41:28 0° 300° (WNW) 3,927 7.1 -34.6°
